STARLINK-35474

Last updated on Fri Dec 12 2025 00:02:05 GMT+0000 (Coordinated Universal Time)

1 66437U 25259R 25345.58335648 .00091451 00000+0 21769-2 0 9996 2 66437 43.0002 54.2921 0001675 278.3720 282.9943 15.40609397 6094
UTC large
Height (km)
Speed (km/s)
/
Latitude / Longitude
Inclination (degrees)
Orbital Period (minutes)
Azimuth
Elevation
Range (km)
Doppler Factor

Next 0 passes for location: London (51.5072 / 0.1276)

Sorry there are no passes over London.